AJB521 SAZT-SABE

Flight info

Callsign AJB521
Flight time 0h 48m
Altitude 19000
Route KALIM W18 GBE GBE8R
Aircraft AT46/M-SDFGIRY/S

Departure

Time 2026-05-08 04:22
Airport Héroes de Malvinas Airport (SAZT)

Arrival

Time 2026-05-08 05:10
Airport Aeroparque Jorge Newbery (SABE)
Time Latitude Longitude Altitude Speed Heading
2026-05-08 03:50 -37.24091 -59.23360 576 ft 0 kts 248°
2026-05-08 04:11 -37.24090 -59.23358 580 ft 2 kts 248°
2026-05-08 04:11 -37.24085 -59.23343 575 ft 2 kts 243°
2026-05-08 04:11 -37.24079 -59.23332 579 ft 1 kts 222°
2026-05-08 04:11 -37.24074 -59.23329 576 ft 1 kts 191°
2026-05-08 04:12 -37.24065 -59.23330 577 ft 1 kts 158°
2026-05-08 04:12 -37.24058 -59.23334 580 ft 1 kts 148°
2026-05-08 04:12 -37.24053 -59.23338 579 ft 1 kts 146°
2026-05-08 04:12 -37.24049 -59.23342 576 ft 1 kts 144°
2026-05-08 04:13 -37.24044 -59.23346 574 ft 1 kts 143°
2026-05-08 04:13 -37.24040 -59.23350 574 ft 0 kts 143°
2026-05-08 04:13 -37.24041 -59.23350 574 ft 0 kts 143°
2026-05-08 04:17 -37.24044 -59.23346 574 ft 2 kts 143°
2026-05-08 04:17 -37.24054 -59.23323 576 ft 6 kts 99°
2026-05-08 04:17 -37.24039 -59.23268 577 ft 8 kts 47°
2026-05-08 04:17 -37.24018 -59.23238 574 ft 1 kts 73°
2026-05-08 04:18 -37.24029 -59.23211 575 ft 5 kts 128°
2026-05-08 04:18 -37.24056 -59.23172 576 ft 5 kts 136°
2026-05-08 04:18 -37.24083 -59.23139 575 ft 5 kts 136°
2026-05-08 04:18 -37.24110 -59.23107 575 ft 5 kts 137°
2026-05-08 04:19 -37.24137 -59.23077 575 ft 5 kts 138°
2026-05-08 04:19 -37.24150 -59.23062 574 ft 3 kts 137°
2026-05-08 04:19 -37.24171 -59.23038 580 ft 5 kts 137°
2026-05-08 04:19 -37.24197 -59.23008 578 ft 6 kts 138°
2026-05-08 04:20 -37.24227 -59.22975 575 ft 5 kts 135°
2026-05-08 04:20 -37.24222 -59.22951 574 ft 7 kts 24°
2026-05-08 04:20 -37.24204 -59.22945 579 ft 0 kts
2026-05-08 04:21 -37.24166 -59.22940 577 ft 20 kts
2026-05-08 04:21 -37.23853 -59.22900 571 ft 73 kts
2026-05-08 04:21 -37.23134 -59.22818 571 ft 129 kts
2026-05-08 04:22 -37.22198 -59.22634 734 ft 141 kts
2026-05-08 04:22 -37.21181 -59.22468 881 ft 162 kts 358°
2026-05-08 04:22 -37.20013 -59.22350 1226 ft 171 kts 357°
2026-05-08 04:22 -37.18799 -59.22225 1638 ft 179 kts 358°
2026-05-08 04:23 -37.17531 -59.22067 1948 ft 191 kts 358°
2026-05-08 04:23 -37.16182 -59.21931 2438 ft 193 kts
2026-05-08 04:23 -37.14867 -59.21767 3096 ft 190 kts
2026-05-08 04:23 -37.13516 -59.21586 3547 ft 199 kts
2026-05-08 04:24 -37.12128 -59.21380 4069 ft 203 kts
2026-05-08 04:24 -37.10730 -59.21136 4573 ft 204 kts
2026-05-08 04:24 -37.09326 -59.20883 5098 ft 203 kts
2026-05-08 04:24 -37.07938 -59.20625 5664 ft 200 kts
2026-05-08 04:25 -37.06563 -59.20364 6184 ft 199 kts
2026-05-08 04:25 -37.05194 -59.20106 6684 ft 199 kts
2026-05-08 04:25 -37.03831 -59.19842 7162 ft 199 kts
2026-05-08 04:25 -37.02464 -59.19568 7639 ft 199 kts
2026-05-08 04:26 -37.01102 -59.19283 8108 ft 198 kts
2026-05-08 04:26 -36.99742 -59.18989 8590 ft 198 kts
2026-05-08 04:26 -36.98387 -59.18684 9063 ft 198 kts
2026-05-08 04:26 -36.97053 -59.18370 9523 ft 197 kts
2026-05-08 04:27 -36.95705 -59.18040 9948 ft 197 kts
2026-05-08 04:27 -36.94365 -59.17698 10376 ft 196 kts
2026-05-08 04:27 -36.93034 -59.17346 10794 ft 196 kts
2026-05-08 04:27 -36.91718 -59.16930 11184 ft 198 kts 19°
2026-05-08 04:28 -36.90533 -59.15983 11554 ft 203 kts 28°
2026-05-08 04:28 -36.89363 -59.15000 11959 ft 203 kts 26°
2026-05-08 04:28 -36.88167 -59.14066 12353 ft 202 kts 23°
2026-05-08 04:28 -36.86947 -59.13190 12744 ft 202 kts 21°
2026-05-08 04:29 -36.86117 -59.12615 13009 ft 202 kts 21°
2026-05-08 04:29 -36.84884 -59.11766 13385 ft 202 kts 20°
2026-05-08 04:29 -36.83668 -59.10934 13719 ft 202 kts 19°
2026-05-08 04:29 -36.82429 -59.10105 14060 ft 202 kts 19°
2026-05-08 04:30 -36.81191 -59.09286 14393 ft 202 kts 18°
2026-05-08 04:30 -36.79951 -59.08459 14709 ft 202 kts 19°
2026-05-08 04:30 -36.78715 -59.07616 15022 ft 202 kts 19°
2026-05-08 04:30 -36.77480 -59.06770 15329 ft 202 kts 19°
2026-05-08 04:31 -36.76246 -59.05926 15652 ft 203 kts 19°
2026-05-08 04:31 -36.75007 -59.05079 15969 ft 202 kts 18°
2026-05-08 04:31 -36.73771 -59.04234 16282 ft 203 kts 18°
2026-05-08 04:31 -36.72535 -59.03389 16592 ft 203 kts 18°
2026-05-08 04:32 -36.71296 -59.02543 16891 ft 203 kts 19°
2026-05-08 04:32 -36.70056 -59.01694 17172 ft 203 kts 18°
2026-05-08 04:32 -36.68813 -59.00844 17448 ft 204 kts 18°
2026-05-08 04:32 -36.67570 -58.99995 17738 ft 204 kts 18°
2026-05-08 04:33 -36.66326 -58.99146 18012 ft 204 kts 18°
2026-05-08 04:33 -36.65079 -58.98294 18253 ft 205 kts 18°
2026-05-08 04:33 -36.63826 -58.97440 18453 ft 208 kts 18°
2026-05-08 04:33 -36.62529 -58.96561 18539 ft 216 kts 19°
2026-05-08 04:34 -36.61181 -58.95646 18559 ft 226 kts 19°
2026-05-08 04:34 -36.59771 -58.94686 18551 ft 235 kts 19°
2026-05-08 04:34 -36.58315 -58.93696 18552 ft 242 kts 19°
2026-05-08 04:34 -36.56819 -58.92682 18552 ft 247 kts 20°
2026-05-08 04:35 -36.55298 -58.91646 18554 ft 251 kts 20°
2026-05-08 04:35 -36.53754 -58.90596 18543 ft 254 kts 20°
2026-05-08 04:35 -36.52194 -58.89539 18542 ft 257 kts 20°
2026-05-08 04:35 -36.50642 -58.88487 18541 ft 259 kts 20°
2026-05-08 04:36 -36.49035 -58.87397 18541 ft 260 kts 20°
2026-05-08 04:36 -36.47443 -58.86315 18532 ft 261 kts 20°
2026-05-08 04:36 -36.45870 -58.85251 18529 ft 262 kts 20°
2026-05-08 04:36 -36.44274 -58.84172 18530 ft 262 kts 20°
2026-05-08 04:37 -36.42667 -58.83085 18530 ft 262 kts 20°
2026-05-08 04:37 -36.41067 -58.82002 18516 ft 262 kts 20°
2026-05-08 04:37 -36.39464 -58.80918 18517 ft 263 kts 20°
2026-05-08 04:37 -36.37856 -58.79832 18515 ft 262 kts 20°
2026-05-08 04:38 -36.36255 -58.78749 18512 ft 262 kts 20°
2026-05-08 04:38 -36.34647 -58.77663 18509 ft 262 kts 20°
2026-05-08 04:38 -36.33047 -58.76585 18510 ft 262 kts 20°
2026-05-08 04:38 -36.31444 -58.75506 18508 ft 262 kts 20°
2026-05-08 04:39 -36.29838 -58.74435 18509 ft 262 kts 20°
2026-05-08 04:39 -36.28196 -58.73515 18496 ft 256 kts 12°
2026-05-08 04:39 -36.26527 -58.72762 18499 ft 255 kts 11°
2026-05-08 04:39 -36.24852 -58.72003 18500 ft 258 kts 13°
2026-05-08 04:40 -36.23171 -58.71176 18497 ft 261 kts 14°
2026-05-08 04:40 -36.21490 -58.70299 18490 ft 264 kts 15°
2026-05-08 04:40 -36.19796 -58.69414 18489 ft 265 kts 14°
2026-05-08 04:40 -36.18099 -58.68535 18492 ft 264 kts 14°
2026-05-08 04:41 -36.16404 -58.67660 18492 ft 263 kts 14°
2026-05-08 04:41 -36.14723 -58.66793 18479 ft 262 kts 14°
2026-05-08 04:41 -36.13038 -58.65926 18477 ft 263 kts 14°
2026-05-08 04:41 -36.11350 -58.65059 18479 ft 264 kts 14°
2026-05-08 04:42 -36.09653 -58.64187 18479 ft 265 kts 14°
2026-05-08 04:42 -36.07950 -58.63310 18470 ft 265 kts 14°
2026-05-08 04:42 -36.06245 -58.62436 18472 ft 266 kts 14°
2026-05-08 04:42 -36.04536 -58.61558 18471 ft 266 kts 14°
2026-05-08 04:43 -36.02849 -58.60695 18474 ft 266 kts 14°
2026-05-08 04:43 -36.01141 -58.59817 18457 ft 266 kts 14°
2026-05-08 04:43 -35.99428 -58.58937 18460 ft 266 kts 14°
2026-05-08 04:43 -35.97722 -58.58062 18458 ft 266 kts 14°
2026-05-08 04:44 -35.96008 -58.57187 18459 ft 266 kts 14°
2026-05-08 04:44 -35.94302 -58.56312 18455 ft 266 kts 14°
2026-05-08 04:44 -35.92592 -58.55437 18453 ft 266 kts 14°
2026-05-08 04:44 -35.90885 -58.54565 18452 ft 265 kts 14°
2026-05-08 04:45 -35.89178 -58.53694 18454 ft 265 kts 14°
2026-05-08 04:45 -35.87475 -58.52820 18447 ft 265 kts 13°
2026-05-08 04:45 -35.85772 -58.51951 18442 ft 265 kts 13°
2026-05-08 04:45 -35.84071 -58.51084 18446 ft 265 kts 13°
2026-05-08 04:46 -35.82374 -58.50218 18447 ft 265 kts 13°
2026-05-08 04:46 -35.80673 -58.49347 18439 ft 264 kts 13°
2026-05-08 04:46 -35.78975 -58.48483 18435 ft 264 kts 13°
2026-05-08 04:46 -35.77274 -58.47617 18435 ft 264 kts 13°
2026-05-08 04:47 -35.75576 -58.46755 18439 ft 264 kts 13°
2026-05-08 04:47 -35.73906 -58.45806 18430 ft 268 kts 20°
2026-05-08 04:47 -35.72316 -58.44572 18430 ft 272 kts 23°
2026-05-08 04:47 -35.70734 -58.43285 18430 ft 272 kts 23°
2026-05-08 04:48 -35.69141 -58.42038 18425 ft 270 kts 21°
2026-05-08 04:48 -35.67534 -58.40845 18416 ft 269 kts 20°
2026-05-08 04:48 -35.65926 -58.39669 18416 ft 269 kts 21°
2026-05-08 04:48 -35.64317 -58.38483 18414 ft 269 kts 21°
2026-05-08 04:49 -35.62712 -58.37302 18414 ft 269 kts 21°
2026-05-08 04:49 -35.61108 -58.36119 18406 ft 269 kts 20°
2026-05-08 04:49 -35.59501 -58.34938 18401 ft 269 kts 21°
2026-05-08 04:49 -35.57912 -58.33769 18403 ft 269 kts 21°
2026-05-08 04:50 -35.56306 -58.32588 18402 ft 269 kts 21°
2026-05-08 04:50 -35.54697 -58.31406 18391 ft 269 kts 21°
2026-05-08 04:50 -35.53089 -58.30226 18392 ft 269 kts 21°
2026-05-08 04:50 -35.51483 -58.29047 18392 ft 270 kts 21°
2026-05-08 04:51 -35.49872 -58.27864 18393 ft 270 kts 21°
2026-05-08 04:51 -35.48261 -58.26682 18378 ft 270 kts 21°
2026-05-08 04:51 -35.46650 -58.25502 18380 ft 270 kts 21°
2026-05-08 04:51 -35.45033 -58.24317 18378 ft 270 kts 21°
2026-05-08 04:52 -35.43417 -58.23134 18379 ft 270 kts 21°
2026-05-08 04:52 -35.41801 -58.21950 18366 ft 271 kts 21°
2026-05-08 04:52 -35.40185 -58.20769 18369 ft 271 kts 21°
2026-05-08 04:52 -35.38566 -58.19586 18367 ft 271 kts 21°
2026-05-08 04:53 -35.36949 -58.18404 18363 ft 271 kts 21°
2026-05-08 04:53 -35.35318 -58.17252 18350 ft 266 kts 14°
2026-05-08 04:53 -35.33603 -58.16952 18408 ft 241 kts 346°
2026-05-08 04:53 -35.31939 -58.17295 18189 ft 248 kts 343°
2026-05-08 04:54 -35.30188 -58.17627 17824 ft 261 kts 347°
2026-05-08 04:54 -35.28367 -58.17771 17394 ft 263 kts 352°
2026-05-08 04:54 -35.26528 -58.17727 16991 ft 265 kts 355°
2026-05-08 04:54 -35.24677 -58.17610 16579 ft 266 kts 356°
2026-05-08 04:55 -35.22828 -58.17491 18424 ft 267 kts 356°
2026-05-08 04:55 -35.20970 -58.17388 18025 ft 267 kts 355°
2026-05-08 04:55 -35.19116 -58.17306 17628 ft 267 kts 355°
2026-05-08 04:55 -35.17255 -58.17232 17240 ft 268 kts 355°
2026-05-08 04:56 -35.15389 -58.17157 16837 ft 269 kts 355°
2026-05-08 04:56 -35.13513 -58.17080 16457 ft 270 kts 355°
2026-05-08 04:56 -35.11636 -58.17006 16076 ft 271 kts 355°
2026-05-08 04:56 -35.09744 -58.16931 15697 ft 272 kts 355°
2026-05-08 04:57 -35.07846 -58.16856 15260 ft 274 kts 355°
2026-05-08 04:57 -35.05966 -58.16780 14840 ft 274 kts 355°
2026-05-08 04:57 -35.04055 -58.16703 14416 ft 274 kts 355°
2026-05-08 04:57 -35.02156 -58.16629 14005 ft 272 kts 355°
2026-05-08 04:58 -35.00267 -58.16553 13600 ft 271 kts 355°
2026-05-08 04:58 -34.98382 -58.16475 13196 ft 271 kts 355°
2026-05-08 04:58 -34.96506 -58.16401 12803 ft 270 kts 355°
2026-05-08 04:58 -34.94628 -58.16325 12418 ft 269 kts 355°
2026-05-08 04:59 -34.92757 -58.16251 12022 ft 269 kts 355°
2026-05-08 04:59 -34.90887 -58.16175 11638 ft 269 kts 355°
2026-05-08 04:59 -34.89052 -58.16096 11220 ft 249 kts 355°
2026-05-08 04:59 -34.87426 -58.16017 10854 ft 220 kts 354°
2026-05-08 05:00 -34.85970 -58.15961 10521 ft 201 kts 353°
2026-05-08 05:00 -34.84608 -58.15914 10231 ft 190 kts 353°
2026-05-08 05:00 -34.83312 -58.15863 9949 ft 183 kts 352°
2026-05-08 05:00 -34.82065 -58.15814 9686 ft 176 kts 352°
2026-05-08 05:01 -34.80855 -58.15768 9436 ft 174 kts 352°
2026-05-08 05:01 -34.79618 -58.15727 9195 ft 181 kts 352°
2026-05-08 05:01 -34.78319 -58.15705 8946 ft 192 kts 352°
2026-05-08 05:01 -34.76957 -58.15674 8681 ft 198 kts 353°
2026-05-08 05:02 -34.75564 -58.15625 6178 ft 202 kts 353°
2026-05-08 05:02 -34.74148 -58.15569 5896 ft 205 kts 353°
2026-05-08 05:02 -34.72713 -58.15514 5590 ft 208 kts 353°
2026-05-08 05:02 -34.71282 -58.15527 5286 ft 196 kts 341°
2026-05-08 05:03 -34.70248 -58.16264 5034 ft 160 kts 310°
2026-05-08 05:03 -34.69475 -58.17248 4797 ft 162 kts 306°
2026-05-08 05:03 -34.68776 -58.18337 4563 ft 164 kts 302°
2026-05-08 05:03 -34.68123 -58.19490 4331 ft 167 kts 300°
2026-05-08 05:04 -34.67485 -58.20675 4095 ft 169 kts 300°
2026-05-08 05:04 -34.66860 -58.21818 3853 ft 159 kts 300°
2026-05-08 05:04 -34.66259 -58.22923 3627 ft 157 kts 298°
2026-05-08 05:04 -34.65641 -58.23997 3414 ft 149 kts 300°
2026-05-08 05:05 -34.65081 -58.25001 3192 ft 141 kts 297°
2026-05-08 05:05 -34.64552 -58.25989 2991 ft 138 kts 297°
2026-05-08 05:05 -34.64045 -58.26936 2786 ft 129 kts 298°
2026-05-08 05:05 -34.63571 -58.27806 2599 ft 119 kts 297°
2026-05-08 05:06 -34.63120 -58.28636 2433 ft 118 kts 298°
2026-05-08 05:06 -34.62654 -58.29460 2259 ft 119 kts 299°
2026-05-08 05:06 -34.62197 -58.30306 2073 ft 121 kts 299°
2026-05-08 05:06 -34.61726 -58.31169 1893 ft 123 kts 299°
2026-05-08 05:07 -34.61254 -58.32013 1782 ft 119 kts 299°
2026-05-08 05:07 -34.60784 -58.32850 1640 ft 122 kts 299°
2026-05-08 05:07 -34.60303 -58.33708 1459 ft 124 kts 300°
2026-05-08 05:07 -34.59818 -58.34576 1288 ft 125 kts 300°
2026-05-08 05:08 -34.59330 -58.35456 1111 ft 126 kts 301°
2026-05-08 05:08 -34.58832 -58.36332 952 ft 127 kts 301°
2026-05-08 05:08 -34.58361 -58.37160 762 ft 112 kts 300°
2026-05-08 05:08 -34.57915 -58.37923 590 ft 111 kts 298°
2026-05-08 05:09 -34.57477 -58.38697 424 ft 111 kts 297°
2026-05-08 05:09 -34.57057 -58.39489 262 ft 112 kts 295°
2026-05-08 05:09 -34.56626 -58.40279 124 ft 111 kts 295°
2026-05-08 05:09 -34.56201 -58.41061 30 ft 107 kts 295°
2026-05-08 05:10 -34.55870 -58.41695 23 ft 65 kts 302°
2026-05-08 05:10 -34.55482 -58.42365 26 ft 34 kts 307°
2026-05-08 05:10 -34.55401 -58.42493 26 ft 9 kts 332°
2026-05-08 05:11 -34.55353 -58.42460 27 ft 9 kts 86°
2026-05-08 05:11 -34.55371 -58.42378 23 ft 12 kts 111°
2026-05-08 05:11 -34.55414 -58.42299 24 ft 10 kts 124°
2026-05-08 05:11 -34.55454 -58.42231 27 ft 10 kts 127°
2026-05-08 05:12 -34.55497 -58.42162 24 ft 10 kts 127°
2026-05-08 05:12 -34.55538 -58.42094 25 ft 11 kts 126°
2026-05-08 05:12 -34.55599 -58.41994 24 ft 14 kts 126°
2026-05-08 05:12 -34.55652 -58.41903 27 ft 12 kts 124°
2026-05-08 05:13 -34.55699 -58.41816 23 ft 12 kts 123°
2026-05-08 05:13 -34.55742 -58.41734 24 ft 11 kts 118°
2026-05-08 05:13 -34.55774 -58.41656 23 ft 10 kts 117°
2026-05-08 05:13 -34.55806 -58.41580 23 ft 11 kts 117°
2026-05-08 05:14 -34.55841 -58.41496 24 ft 12 kts 117°
2026-05-08 05:14 -34.55878 -58.41410 26 ft 11 kts 116°
2026-05-08 05:14 -34.55898 -58.41360 23 ft 0 kts 117°
2026-05-08 05:14 -34.55903 -58.41349 23 ft 3 kts 116°
2026-05-08 05:15 -34.55911 -58.41324 25 ft 2 kts 82°
2026-05-08 05:15 -34.55883 -58.41288 23 ft 9 kts 30°
2026-05-08 05:15 -34.55834 -58.41285 23 ft 5 kts 322°
2026-05-08 05:15 -34.55819 -58.41310 23 ft 2 kts 299°
2026-05-08 05:16 -34.55813 -58.41321 27 ft 3 kts 299°
2026-05-08 05:16 -34.55799 -58.41350 25 ft 4 kts 303°
2026-05-08 05:16 -34.55788 -58.41371 26 ft 1 kts 291°
2026-05-08 05:16 -34.55787 -58.41376 25 ft 1 kts 275°
2026-05-08 05:17 -34.55788 -58.41381 25 ft 0 kts 251°
2026-05-08 05:17 -34.55803 -58.41392 24 ft 6 kts 204°
2026-05-08 05:17 -34.55823 -58.41405 23 ft 4 kts 209°
2026-05-08 05:17 -34.55827 -58.41408 23 ft 0 kts 209°